BEIDOU-2 G7

Last updated on Thu Jul 03 2025 00:02:47 GMT+0000 (Coordinated Universal Time)

1 41586U 16037A 25183.62434812 -.00000347 00000+0 00000+0 0 9993 2 41586 1.8020 69.1142 0009751 10.0705 177.0196 1.00273168 3388
UTC large
Height (km)
Speed (km/s)
/
Latitude / Longitude
Inclination (degrees)
Orbital Period (minutes)
Azimuth
Elevation
Range (km)
Doppler Factor

Next 0 passes for location: London (51.5072 / 0.1276)

Sorry there are no passes over London.